[[{"header":{"parameterUnit":"m.s-1","parameterCategory":1,"la1":30.2992,"la2":30.254,"lo1":-89.0895,"lo2":-89.0443,"dy":0.0025,"dx":0.0025,"nx":19,"ny":19,"refTime":"2026-04-26T21:00:00:Z","depth":0,"parameterNumber":2,"parameterNumberName":"U-component_of_WINDS"},"data":[0,0,0,-2.4718,-2.472,-2.4817,-2.4818,-2.4942,-2.4944,0,0,0,0,0,0,0,0,0,0,0,-2.4688,-2.4688,-2.4717,-2.472,-2.4817,-2.4818,-2.4942,-2.4944,0,0,0,0,0,0,0,0,0,0,0,-2.4687,-2.4688,-2.4689,-2.472,-2.4817,-2.4818,-2.4942,-2.4869,0,0,0,0,0,0,0,0,0,0,-2.4774,-2.4745,-2.4688,-2.4689,-2.4721,-2.4817,-2.4818,-2.4865,-2.4873,-2.4898,0,-2.4919,0,-2.4933,-2.4952,-2.4952,0,0,0,-2.4721,-2.4738,-2.4765,-2.4689,-2.4722,-2.4817,-2.4774,-2.487,-2.4879,-2.4909,-2.4921,-2.4925,-2.4935,-2.4953,-2.4953,-2.5091,-2.5092,0,0,-2.4715,-2.4705,-2.4759,-2.4771,-2.4755,-2.477,-2.4777,-2.4875,-2.4888,-2.4921,-2.4928,-2.4937,-2.4953,-2.4954,-2.509,-2.5091,0,0,0,-2.4699,-2.4701,-2.4726,-2.4766,-2.4784,-2.4773,-2.478,-2.4884,-2.4892,-2.493,-2.4939,-2.4954,-2.4956,-2.509,-2.5091,-2.5109,0,0,0,-2.4696,-2.4692,-2.4723,-2.4718,-2.4782,-2.4835,-2.4786,-2.4886,-2.4897,-2.4938,-2.4954,-2.4957,-2.5089,-2.509,-2.5107,-2.512,0,0,0,-2.4682,-2.469,-2.4704,-2.4717,-2.4759,-2.4833,-2.4848,-2.4888,-2.4903,-2.4952,-2.4957,-2.5089,-2.509,-2.5106,-2.5117,-2.5152,0,0,0,-2.4664,-2.472,-2.4704,-2.477,-2.4758,-2.4844,-2.4847,-2.4912,-2.4957,-2.4955,-2.5089,-2.5091,-2.5105,-2.5115,-2.515,-2.5179,-2.519,0,0,-2.4728,-2.4727,-2.4767,-2.4756,-2.4842,-2.483,-2.492,-2.4971,-2.4986,-2.5055,-2.5059,-2.5108,-2.5117,-2.5152,-2.5259,-2.5268,0,0,0,-2.4784,-2.4812,-2.4837,-2.4879,-2.492,-2.4955,-2.4994,-2.5013,-2.5073,-2.5019,-2.5131,-2.5137,-2.5158,-2.5172,-2.518,-2.5198,-2.5097,-2.5097,-2.5097,-2.486,-2.4876,-2.4943,-2.497,-2.5011,-2.505,-2.5085,-2.5118,-2.5122,-2.5149,-2.5169,-2.5232,-2.5248,-2.5254,-2.5273,-2.5186,-2.5186,-2.5186,-2.5186,-2.4956,-2.4998,-2.5002,-2.5068,-2.5085,-2.5141,-2.5182,-2.5183,-2.5239,-2.5218,-2.5237,-2.5212,-2.5263,-2.5281,-2.5188,-2.5188,-2.5188,-2.5187,-2.5187,-2.5006,-2.5029,-2.5051,-2.5114,-2.516,-2.5187,-2.5239,-2.5253,-2.5267,-2.5286,-2.5308,-2.5308,-2.5309,-2.5296,-2.5296,-2.5296,-2.5296,-2.5297,-2.5297,-2.505,-2.5074,-2.5116,-2.5164,-2.5193,-2.5232,-2.5273,-2.5303,-2.5338,-2.5344,-2.5344,-2.5346,-2.5265,-2.5244,-2.53,-2.53,-2.5299,-2.5299,-2.5299,-2.5139,-2.5121,-2.5186,-2.5214,-2.5272,-2.5317,-2.5334,-2.5392,-2.5418,-2.5444,-2.5442,-2.5381,-2.538,-2.5374,-2.5357,-2.5439,-2.5439,-2.5439,-2.5439,-2.5181,-2.5182,-2.5251,-2.5296,-2.5342,-2.5364,-2.5438,-2.5471,-2.5502,-2.5519,-2.551,-2.5489,-2.5482,-2.5486,-2.5477,-2.5461,-2.5567,-2.5568,-2.5568,-2.5236,-2.5243,-2.5302,-2.5331,-2.5377,-2.5417,-2.5486,-2.5539,-2.5571,-2.5573,-2.5533,-2.5528,-2.5493,-2.5481,-2.5481,-2.5468,-2.5439,0,0]},{"header":{"parameterUnit":"m.s-1","parameterCategory":1,"la1":30.2992,"la2":30.254,"lo1":-89.0895,"lo2":-89.0443,"dy":0.0025,"dx":0.0025,"nx":19,"ny":19,"refTime":"2026-04-26T21:00:00:Z","depth":0,"parameterNumber":3,"parameterNumberName":"V-component_of_WINDS"},"data":[0,0,0,4.5579,4.558,4.5657,4.5658,4.5763,4.5764,0,0,0,0,0,0,0,0,0,0,0,4.5562,4.5563,4.5579,4.5581,4.5657,4.5658,4.5763,4.5764,0,0,0,0,0,0,0,0,0,0,0,4.5562,4.5563,4.5564,4.5581,4.5657,4.5658,4.5763,4.5702,0,0,0,0,0,0,0,0,0,0,4.5625,4.5617,4.5563,4.5564,4.5581,4.5657,4.5658,4.5698,4.5705,4.5732,0,4.576,0,4.5764,4.5772,4.5772,0,0,0,4.5575,4.5612,4.5627,4.5565,4.5582,4.5657,4.5621,4.5702,4.571,4.5741,4.5761,4.5765,4.5766,4.5773,4.5773,4.5952,4.5953,0,0,4.5571,4.5579,4.5622,4.5632,4.5624,4.5619,4.5624,4.5707,4.5728,4.5761,4.5767,4.5767,4.5773,4.5774,4.5951,4.5953,0,0,0,4.5562,4.5576,4.5589,4.5628,4.5642,4.5621,4.5627,4.5724,4.5728,4.5768,4.5769,4.5774,4.5776,4.595,4.5952,4.6015,0,0,0,4.556,4.5571,4.5588,4.5593,4.5641,4.5684,4.5642,4.5722,4.5731,4.5768,4.5774,4.5777,4.5949,4.5951,4.6011,4.6044,0,0,0,4.5555,4.5571,4.5585,4.5594,4.5627,4.5683,4.5691,4.5724,4.5732,4.5772,4.5777,4.5948,4.5951,4.6007,4.6037,4.6094,0,0,0,4.5552,4.5638,4.5586,4.5682,4.5627,4.5723,4.569,4.576,4.5803,4.5775,4.5949,4.5952,4.6006,4.6033,4.609,4.6143,4.6166,0,0,4.5665,4.5652,4.5708,4.5663,4.5771,4.571,4.5826,4.5855,4.585,4.5918,4.5922,4.6012,4.6037,4.6093,4.6293,4.6312,0,0,0,4.5747,4.5787,4.5814,4.5856,4.5883,4.5908,4.5919,4.593,4.5988,4.5888,4.6048,4.6062,4.6095,4.612,4.6135,4.6163,4.5964,4.5963,4.5963,4.5918,4.5909,4.6002,4.6003,4.6044,4.6056,4.6088,4.6105,4.6081,4.612,4.614,4.6263,4.6292,4.6304,4.6333,4.6167,4.6167,4.6168,4.6168,4.6083,4.6139,4.6109,4.6189,4.6178,4.6243,4.6258,4.624,4.6299,4.6246,4.6275,4.6218,4.6325,4.635,4.6172,4.6172,4.6171,4.6171,4.617,4.6194,4.622,4.6234,4.6295,4.6343,4.634,4.6398,4.6386,4.6374,4.6402,4.6422,4.6421,4.6419,4.6413,4.6413,4.6414,4.6414,4.6415,4.6415,4.6304,4.6318,4.637,4.6407,4.6433,4.6466,4.648,4.6504,4.6528,4.6514,4.6515,4.6488,4.6337,4.63,4.6421,4.642,4.6419,4.6419,4.6418,4.6475,4.6435,4.6515,4.6542,4.6584,4.6633,4.6617,4.6669,4.6687,4.6717,4.6685,4.6575,4.656,4.6547,4.6516,4.6686,4.6686,4.6686,4.6686,4.6569,4.6561,4.6641,4.6684,4.6725,4.672,4.681,4.6822,4.6827,4.6838,4.6811,4.6769,4.6756,4.6748,4.6731,4.6702,4.6916,4.6916,4.6916,4.6673,4.6669,4.6749,4.6756,4.6789,4.6817,4.6901,4.6951,4.6948,4.6925,4.6846,4.6836,4.6767,4.6746,4.6721,4.6694,4.664,0,0]}]]